Latest Coastal Weather Observations for Browse Island

IDW60701

Issued at 1:02 pm WST Monday 2 March 2015 (issued every 10 minutes, with the page automatically refreshed every 10 minutes)

About coastal observations | Map of coastal stations | Coastal observations for WA | Marine services | Other Formats
Station Details ID: 200784 Name: BROWSE ISLAND Lat: -14.11 Lon: 123.55 Height: 3.7 m
Data from the previous 72 hours. | See also: Recent months for locations in Western Australia
Date/Time
WST
Temp

°C
Wind Pressure Rain
since 9am
mm
Weather Cloud Vis
km
Sea
Height
m
Swell
Dir
 
Speed
knots
Gust
knots
hPa Trend Height
m
Period
s
Dir
02/01:00pm 29.3 SW 14 15 1005.8 - - - - - - - - -
02/12:30pm 29.0 SW 15 - 1006.0 - - - - - - - - -
02/12:00pm 29.3 SW 14 - 1006.6 - - - - - - - - -
02/11:30am 29.0 WSW 14 - 1007.0 - - - - - - - - -
02/11:00am 29.2 WSW 14 - 1007.2 - - - - - - - - -
02/10:30am 29.0 SW 15 - 1007.0 - - - - - - - - -
02/10:00am 29.1 WSW 13 - 1007.5 - - - - - - - - -
02/09:30am 29.0 WSW 14 - 1007.0 - - - - - - - - -
02/09:00am 29.1 SW 13 - 1007.8 - - - - - - - - -
02/08:30am 29.0 WSW 13 - 1007.0 - - - - - - - - -
02/08:00am 29.0 SW 13 - 1007.6 - - - - - - - - -
02/07:30am 29.0 SW 12 - 1007.0 - - - - - - - - -
02/07:00am 29.0 WSW 13 - 1007.3 - - - - - - - - -
02/06:30am 29.0 WSW 14 - 1007.0 - - - - - - - - -
02/06:00am 28.9 WSW 15 - 1006.9 - - - - - - - - -
02/05:30am 29.0 W 14 - 1006.0 - - - - - - - - -
02/05:00am 28.2 W 14 - 1006.2 - - - - - - - - -
02/04:30am 28.0 W 19 - 1006.0 - - - - - - - - -
02/04:00am 28.9 WSW 14 - 1006.0 - - - - - - - - -
02/03:30am 29.0 WSW 11 - 1006.0 - - - - - - - - -
02/03:00am 28.9 WSW 12 - 1006.3 - - - - - - - - -
02/02:30am 29.0 WSW 13 - 1006.0 - - - - - - - - -
02/02:00am 29.0 WSW 14 - 1006.7 - - - - - - - - -
02/01:30am 29.0 W 14 - 1006.0 - - - - - - - - -
02/01:00am 28.8 WSW 12 - 1006.9 - - - - - - - - -
02/12:30am 29.0 WSW 12 - 1007.0 - - - - - - - - -
02/12:00am 28.9 WSW 11 13 1007.2 - - - - - - - - -
 
Date/Time
WST
Temp

°C
Wind Pressure Rain
since 9am
mm
Weather Cloud Vis
km
Sea
Height
m
Swell
Dir
 
Speed
knots
Gust
knots
hPa Trend Height
m
Period
s
Dir
01/11:30pm 29.0 WSW 10 - 1007.0 - - - - - - - - -
01/11:00pm 28.8 WSW 11 - 1007.7 - - - - - - - - -
01/10:30pm 29.0 WSW 13 - 1008.0 - - - - - - - - -
01/10:00pm 28.6 WSW 12 - 1008.0 - - - - - - - - -
01/09:30pm 29.0 SW 11 - 1007.0 - - - - - - - - -
01/09:00pm 28.7 SW 11 - 1007.6 - - - - - - - - -
01/08:30pm 29.0 SSW 13 - 1007.0 - - - - - - - - -
01/08:00pm 28.3 SW 12 - 1007.5 - - - - - - - - -
01/07:30pm 28.0 SSW 13 - 1007.0 - - - - - - - - -
01/07:00pm 28.2 SW 14 - 1006.8 - - - - - - - - -
01/06:30pm 27.0 SW 11 - 1006.0 - - - - - - - - -
01/06:00pm 26.5 SSW 14 - 1006.5 - - - - - - - - -
01/05:30pm 26.0 S 17 - 1006.0 - - - - - - - - -
01/05:00pm 26.7 SSW 22 - 1006.1 - - - - - - - - -
01/04:41pm 27.0 SSW 21 - 1006.0 - - - - - - - - -
01/04:30pm 28.0 SW 9 - 1006.0 - - - - - - - - -
01/04:00pm 28.5 SW 8 - 1006.2 - - - - - - - - -
01/03:30pm 28.0 SW 10 - 1006.0 - - - - - - - - -
01/03:00pm 28.2 WSW 13 - 1006.4 - - - - - - - - -
01/02:30pm 28.0 SW 11 - 1006.0 - - - - - - - - -
01/02:00pm 27.6 SSW 8 - 1006.8 - - - - - - - - -
01/01:30pm 28.0 SW 10 - 1007.0 - - - - - - - - -
01/01:00pm 28.1 SW 14 - 1006.6 - - - - - - - - -
01/12:30pm 28.0 SW 15 - 1006.0 - - - - - - - - -
01/12:00pm 27.4 SW 20 - 1007.5 - - - - - - - - -
01/11:30am 28.0 WSW 17 - 1007.0 - - - - - - - - -
01/11:00am 27.4 WSW 17 - 1008.4 - - - - - - - - -
01/10:30am 27.0 WSW 17 - 1009.0 - - - - - - - - -
01/10:00am 27.0 W 20 - 1008.6 - - - - - - - - -
01/09:30am 27.0 WSW 14 - 1009.0 - - - - - - - - -
01/09:00am 27.0 W 19 - 1008.6 - - - - - - - - -
01/08:30am 30.0 WSW 14 - 1008.0 - - - - - - - - -
01/08:00am 29.5 WSW 16 - 1008.2 - - - - - - - - -
01/07:30am 29.0 WSW 14 - 1008.0 - - - - - - - - -
01/07:00am 27.8 WNW 15 - 1008.0 - - - - - - - - -
01/06:30am 29.0 W 14 - 1007.0 - - - - - - - - -
01/06:00am 29.4 W 15 - 1007.2 - - - - - - - - -
01/05:30am 29.0 W 15 - 1007.0 - - - - - - - - -
01/05:00am 28.7 W 18 - 1006.6 - - - - - - - - -
01/04:30am 29.0 W 15 - 1006.0 - - - - - - - - -
01/04:00am 29.3 W 15 - 1006.1 - - - - - - - - -
01/03:30am 29.0 WSW 14 - 1006.0 - - - - - - - - -
01/03:00am 29.0 W 13 - 1005.8 - - - - - - - - -
01/02:30am 29.0 W 12 - 1006.0 - - - - - - - - -
01/02:00am 29.2 W 12 - 1006.3 - - - - - - - - -
01/01:30am 29.0 W 11 - 1006.0 - - - - - - - - -
01/01:00am 29.2 W 13 - 1006.5 - - - - - - - - -
01/12:30am 29.0 W 11 - 1007.0 - - - - - - - - -
01/12:00am 29.1 W 13 - 1007.1 - - - - - - - - -
 
Date/Time
WST
Temp

°C
Wind Pressure Rain
since 9am
mm
Weather Cloud Vis
km
Sea
Height
m
Swell
Dir
 
Speed
knots
Gust
knots
hPa Trend Height
m
Period
s
Dir
28/11:30pm 29.0 WNW 12 - 1007.0 - - - - - - - - -
28/11:00pm 29.0 WNW 11 - 1007.9 - - - - - - - - -
28/10:30pm 29.0 W 9 - 1008.0 - - - - - - - - -
28/10:00pm 29.1 W 9 - 1008.4 - - - - - - - - -
28/09:30pm 29.0 W 9 - 1008.0 - - - - - - - - -
28/09:00pm 28.9 W 10 - 1008.3 - - - - - - - - -
28/08:30pm 29.0 W 9 - 1008.0 - - - - - - - - -
28/08:00pm 28.7 W 10 - 1007.9 - - - - - - - - -
28/07:30pm 29.0 WSW 10 - 1007.0 - - - - - - - - -
28/07:00pm 29.2 WSW 11 - 1007.2 - - - - - - - - -
28/06:30pm 29.0 WSW 12 - 1006.0 - - - - - - - - -
28/06:00pm 29.1 SW 11 - 1006.4 - - - - - - - - -
28/05:30pm 29.0 WSW 12 - 1006.0 - - - - - - - - -
28/05:00pm 28.7 W 13 - 1005.6 - - - - - - - - -
28/04:30pm 29.0 W 15 - 1005.0 - - - - - - - - -
28/04:00pm 29.0 W 15 - 1004.8 - - - - - - - - -
28/03:30pm 28.0 W 15 - 1005.0 - - - - - - - - -
28/03:00pm 28.2 W 16 - 1005.6 - - - - - - - - -
28/02:30pm 29.0 W 11 - 1006.0 - - - - - - - - -
28/02:00pm 28.8 W 12 - 1006.0 - - - - - - - - -
28/01:30pm 29.0 W 14 - 1006.0 - - - - - - - - -
28/01:00pm 27.2 W 18 - 1007.1 - - - - - - - - -
28/12:53pm 28.0 W 18 - 1007.0 - - - - - - - - -
28/12:30pm 29.0 W 8 - 1007.0 - - - - - - - - -
28/12:00pm 29.1 W 8 - 1007.9 - - - - - - - - -
28/11:30am 28.0 W 10 - 1008.0 - - - - - - - - -
28/11:00am 28.0 W 14 - 1008.4 - - - - - - - - -
28/10:30am 28.0 SW 12 - 1008.0 - - - - - - - - -
28/10:00am 29.7 W 11 - 1008.6 - - - - - - - - -
28/09:30am 30.0 W 10 - 1008.0 - - - - - - - - -
28/09:00am 29.5 WSW 11 - 1008.8 - - - - - - - - -
28/08:30am 29.0 WSW 11 - 1008.0 - - - - - - - - -
28/08:00am 29.1 W 13 - 1008.4 - - - - - - - - -
28/07:30am 29.0 W 13 - 1008.0 - - - - - - - - -
28/07:00am 29.1 W 10 - 1008.0 - - - - - - - - -
28/06:30am 29.0 WSW 10 - 1007.0 - - - - - - - - -
28/06:00am 29.0 WSW 10 - 1007.6 - - - - - - - - -
28/05:30am 29.0 WSW 12 - 1007.0 - - - - - - - - -
28/05:00am 29.0 W 11 - 1006.9 - - - - - - - - -
28/04:30am 29.0 W 12 - 1006.0 - - - - - - - - -
28/04:00am 29.0 WSW 11 - 1006.1 - - - - - - - - -
28/03:30am 29.0 W 12 - 1006.0 - - - - - - - - -
28/03:00am 28.8 WSW 13 - 1006.1 - - - - - - - - -
28/02:30am 29.0 W 12 - 1006.0 - - - - - - - - -
28/02:00am 28.5 W 12 - 1006.2 - - - - - - - - -
28/01:30am 29.0 WSW 12 - 1006.0 - - - - - - - - -
28/01:00am 28.6 W 11 - 1006.8 - - - - - - - - -
28/12:30am 29.0 W 11 - 1007.0 - - - - - - - - -
28/12:00am 28.7 W 13 - 1007.3 - - - - - - - - -
 
Date/Time
WST
Temp

°C
Wind Pressure Rain
since 9am
mm
Weather Cloud Vis
km
Sea
Height
m
Swell
Dir
 
Speed
knots
Gust
knots
hPa Trend Height
m
Period
s
Dir
27/11:30pm 29.0 W 14 - 1007.0 - - - - - - - - -
27/11:00pm 29.0 W 11 - 1007.5 - - - - - - - - -
27/10:30pm 29.0 W 10 - 1007.0 - - - - - - - - -
27/10:00pm 28.6 NW 7 - 1007.7 - - - - - - - - -
27/09:30pm 29.0 WNW 12 - 1007.0 - - - - - - - - -
27/09:00pm 28.4 WNW 14 - 1007.9 - - - - - - - - -
27/08:30pm 29.0 WNW 11 - 1008.0 - - - - - - - - -
27/08:00pm 29.2 NW 11 - 1007.7 - - - - - - - - -
27/07:30pm 29.0 NNW 9 - 1007.0 - - - - - - - - -
27/07:00pm 28.9 NW 4 - 1006.6 - - - - - - - - -
27/06:30pm 29.0 NW 5 - 1006.0 - - - - - - - - -
27/06:00pm 28.8 WNW 5 - 1005.6 - - - - - - - - -
27/05:30pm 29.0 NW 6 - 1005.0 - - - - - - - - -
27/05:00pm 28.3 NNW 8 - 1005.6 - - - - - - - - -
27/04:30pm 28.0 NW 10 - 1005.0 - - - - - - - - -
27/04:00pm 29.5 NNW 4 - 1005.1 - - - - - - - - -
27/03:30pm 30.0 N 4 - 1005.0 - - - - - - - - -
27/03:00pm 29.8 SE 4 - 1004.9 - - - - - - - - -
27/02:30pm 28.0 ENE 5 - 1005.0 - - - - - - - - -
27/02:00pm 30.0 SW 4 - 1005.3 - - - - - - - - -
27/01:30pm 30.0 W 5 - 1005.0 - - - - - - - - -

Other Formats:

Comma delimited format used in spreadsheet applications
http://www.bom.gov.au/fwo/IDW60701/IDW60701.94103.axf

JavaScript Object Notation format (JSON) in row-major order
http://www.bom.gov.au/fwo/IDW60701/IDW60701.94103.json